STARLINK-6277, 56399

Orbit data source: Space-Track

STARLINK-6277, 56399 is a payload satellite owned by SpaceX/Seattle (US) in LEO that was launched on Thu, 04 May 2023 UTC via an FALCON 9 launch vehicle from the Air Force Eastern Test Range (AFETR). Payload-class satellites include a variety of spacecraft equipped with specific instruments for various scientific and technological missions. These include communications satellites like Starlink; space stations such as the ISS; scientific satellites like the Hubble; Earth observation satellites from companies like Planet Labs, Umbra, and HawkEye 360; GPS; miniature CubeSats for education and research; and military/defense satellites.

Loading next visibility...
Identifier
56399, 2023-061AB
Orbit
LEO
Country
Flag of USUS
Related business
Manufacturer
SpaceX/Seattle
Mission
Operational Commercial Communications
Bus & Motor
STARLINK, Unknown motor
Mass
305 kg wet, ~290 kg dry
Launch date (UTC)
2023-05-04 (3 years ago)
Launch vehicle
FALCON 9
Launch site
Air Force Eastern Test Range (AFETR)
Object type
Payload
Rocket body
Debris
Shape & HBR
Box + 1 Pan, 10.1 m
Radar Cross Section
11.087 m², Large (>1 m²)

Expand to show TLE details & history
Last TLE update: 2 days ago

TLE from 2 days ago
0 STARLINK-6277
1 56399U 23061AB  26171.45320226  .00000020  00000-0  10242-4 0  9990
2 56399  43.0026 326.4609 0001059 269.9117  90.1613 15.27578192172590
Epoch: 2026-06-20T10:52Z
TLE epoch observation values (Epoch: 2026-06-20T10:52:36.675Z)
Latitude
-0.00003°
Longitude
-105.35956°
Altitude
482.832 km
Speed
7.626 km/s
True Right ascension
21h 45m 50s
True Declination
0° 00' 00"
Sunlit
Object was in full shadow at epoch
Visualization orbit readout
Latitude
Unknown
Longitude
Unknown
Altitude
Unknown
Speed
Unknown
Apparent Right ascension
Unknown
Apparent Declination
Unknown
Sunlit
N/A
Visualization observer readout
Local Sidereal Time
21:54:26
Azimuth
Unknown
Elevation
Unknown
Doppler factor
Unknown
Orbital elements
Apogee altitude
485.726 km
Perigee altitude
484.272 km
Semi-major axis
6,863.136 km
Eccentricity
0.00011
Inclination
43.0026°
RAAN
326.4609°
Arg. of periapsis
269.9117°
True anomaly
90.17344°
Mean anomaly
90.1613°
Eccentric anomaly
90.16737°
Mean motion
3.81733 °/min
Orbital period
94.31 mins
BSTAR
0.000010242
Loading maneuver chart data...
Computing Atmospheric mass density...
Loading historical data...
Loading historical data...
Loading historical data...
Loading historical data...
Loading historical data...
Loading historical data...
Loading historical data...

Documentation

Showing up to 5 results
|